Year,Month,Day,Hour,Minute,Value (Times are PST for temperature in C)
2009,08,02,00,00,15.10
2009,08,02,00,01,15.10
2009,08,02,00,02,15.10
2009,08,02,00,03,15.10
2009,08,02,00,04,15.00
2009,08,02,00,05,15.00
2009,08,02,00,06,15.00
2009,08,02,00,07,15.00
2009,08,02,00,08,15.00
2009,08,02,00,09,15.00
2009,08,02,00,10,15.00
2009,08,02,00,11,15.00
2009,08,02,00,12,15.00
2009,08,02,00,13,14.90
2009,08,02,00,14,14.90
2009,08,02,00,15,14.90
2009,08,02,00,16,14.80
2009,08,02,00,17,14.80
2009,08,02,00,18,14.80
2009,08,02,00,19,14.80
2009,08,02,00,20,14.70
2009,08,02,00,21,14.70
2009,08,02,00,22,14.70
2009,08,02,00,23,14.70
2009,08,02,00,24,14.70
2009,08,02,00,25,14.70
2009,08,02,00,26,14.70
2009,08,02,00,27,14.70
2009,08,02,00,28,14.70
2009,08,02,00,29,14.70
2009,08,02,00,30,14.70
2009,08,02,00,31,14.70
2009,08,02,00,32,14.70
2009,08,02,00,33,14.70
2009,08,02,00,34,14.70
2009,08,02,00,35,14.70
2009,08,02,00,36,14.70
2009,08,02,00,37,14.80
2009,08,02,00,38,14.80
2009,08,02,00,39,14.80
2009,08,02,00,40,14.80
2009,08,02,00,41,14.80
2009,08,02,00,42,14.80
2009,08,02,00,43,14.90
2009,08,02,00,44,14.90
2009,08,02,00,45,14.90
2009,08,02,00,46,14.90
2009,08,02,00,47,14.90
2009,08,02,00,48,14.90
2009,08,02,00,49,15.00
2009,08,02,00,50,15.00
2009,08,02,00,51,15.00
2009,08,02,00,52,15.00
2009,08,02,00,53,15.00
2009,08,02,00,54,15.00
2009,08,02,00,55,15.00
2009,08,02,00,56,15.00
2009,08,02,00,57,15.00
2009,08,02,00,58,15.00
2009,08,02,00,59,15.00
2009,08,02,01,00,15.00
2009,08,02,01,01,15.00
2009,08,02,01,02,15.00
2009,08,02,01,03,15.00
2009,08,02,01,04,15.00
2009,08,02,01,05,15.00
2009,08,02,01,06,15.00
2009,08,02,01,07,15.00
2009,08,02,01,08,15.10
2009,08,02,01,09,15.20
2009,08,02,01,10,15.30
2009,08,02,01,11,15.30
2009,08,02,01,12,15.40
2009,08,02,01,13,15.40
2009,08,02,01,14,15.40
2009,08,02,01,15,15.50
2009,08,02,01,16,15.50
2009,08,02,01,17,15.60
2009,08,02,01,18,15.60
2009,08,02,01,19,15.60
2009,08,02,01,20,15.60
2009,08,02,01,21,15.60
2009,08,02,01,22,15.70
2009,08,02,01,23,15.80
2009,08,02,01,24,15.90
2009,08,02,01,25,16.00
2009,08,02,01,26,16.10
2009,08,02,01,27,16.10
2009,08,02,01,28,16.20
2009,08,02,01,29,16.30
2009,08,02,01,30,16.30
2009,08,02,01,31,16.40
2009,08,02,01,32,16.40
2009,08,02,01,33,16.50
2009,08,02,01,34,16.60
2009,08,02,01,35,16.60
2009,08,02,01,36,16.60
2009,08,02,01,37,16.60
2009,08,02,01,38,16.70
2009,08,02,01,39,16.70
2009,08,02,01,40,16.70
2009,08,02,01,41,16.70
2009,08,02,01,42,16.70
2009,08,02,01,43,16.80
2009,08,02,01,44,16.80
2009,08,02,01,45,16.80
2009,08,02,01,46,16.80
2009,08,02,01,47,16.80
2009,08,02,01,48,16.80
2009,08,02,01,49,16.80
2009,08,02,01,50,16.80
2009,08,02,01,51,16.70
2009,08,02,01,52,16.60
2009,08,02,01,53,16.50
2009,08,02,01,54,16.30
2009,08,02,01,55,16.20
2009,08,02,01,56,16.10
2009,08,02,01,57,15.90
2009,08,02,01,58,15.80
2009,08,02,01,59,15.60
2009,08,02,02,00,15.50
2009,08,02,02,01,15.40
2009,08,02,02,02,15.20
2009,08,02,02,03,15.10
2009,08,02,02,04,15.00
2009,08,02,02,05,15.00
2009,08,02,02,06,15.00
2009,08,02,02,07,15.00
2009,08,02,02,08,15.00
2009,08,02,02,09,14.90
2009,08,02,02,10,14.90
2009,08,02,02,11,14.80
2009,08,02,02,12,14.80
2009,08,02,02,13,14.70
2009,08,02,02,14,14.70
2009,08,02,02,15,14.60
2009,08,02,02,16,14.60
2009,08,02,02,17,14.50
2009,08,02,02,18,14.50
2009,08,02,02,19,14.50
2009,08,02,02,20,14.50
2009,08,02,02,21,14.40
2009,08,02,02,22,14.40
2009,08,02,02,23,14.40
2009,08,02,02,24,14.40
2009,08,02,02,25,14.40
2009,08,02,02,26,14.40
2009,08,02,02,27,14.40
2009,08,02,02,28,14.40
2009,08,02,02,29,14.50
2009,08,02,02,30,14.50
2009,08,02,02,31,14.50
2009,08,02,02,32,14.50
2009,08,02,02,33,14.60
2009,08,02,02,34,14.70
2009,08,02,02,35,14.80
2009,08,02,02,36,15.00
2009,08,02,02,37,15.00
2009,08,02,02,38,15.00
2009,08,02,02,39,15.00
2009,08,02,02,40,15.00
2009,08,02,02,41,15.10
2009,08,02,02,42,15.10
2009,08,02,02,43,15.20
2009,08,02,02,44,15.20
2009,08,02,02,45,15.20
2009,08,02,02,46,15.30
2009,08,02,02,47,15.30
2009,08,02,02,48,15.40
2009,08,02,02,49,15.40
2009,08,02,02,50,15.40
2009,08,02,02,51,15.40
2009,08,02,02,52,15.50
2009,08,02,02,53,15.50
2009,08,02,02,54,15.60
2009,08,02,02,55,15.60
2009,08,02,02,56,15.60
2009,08,02,02,57,15.70
2009,08,02,02,58,15.70
2009,08,02,02,59,15.70
2009,08,02,03,00,15.60
2009,08,02,03,01,15.60
2009,08,02,03,02,15.60
2009,08,02,03,03,15.60
2009,08,02,03,04,15.60
2009,08,02,03,05,15.60
2009,08,02,03,06,15.60
2009,08,02,03,07,15.60
2009,08,02,03,08,15.60
2009,08,02,03,09,15.60
2009,08,02,03,10,15.60
2009,08,02,03,11,15.60
2009,08,02,03,12,15.60
2009,08,02,03,13,15.60
2009,08,02,03,14,15.60
2009,08,02,03,15,15.60
2009,08,02,03,16,15.60
2009,08,02,03,17,15.60
2009,08,02,03,18,15.60
2009,08,02,03,19,15.50
2009,08,02,03,20,15.50
2009,08,02,03,21,15.50
2009,08,02,03,22,15.40
2009,08,02,03,23,15.40
2009,08,02,03,24,15.40
2009,08,02,03,25,15.40
2009,08,02,03,26,15.30
2009,08,02,03,27,15.30
2009,08,02,03,28,15.30
2009,08,02,03,29,15.30
2009,08,02,03,30,15.30
2009,08,02,03,31,15.30
2009,08,02,03,32,15.10
2009,08,02,03,33,15.00
2009,08,02,03,34,15.00
2009,08,02,03,35,14.80
2009,08,02,03,36,14.60
2009,08,02,03,37,14.40
2009,08,02,03,38,14.30
2009,08,02,03,39,14.10
2009,08,02,03,40,14.00
2009,08,02,03,41,13.90
2009,08,02,03,42,13.80
2009,08,02,03,43,13.70
2009,08,02,03,44,13.60
2009,08,02,03,45,13.60
2009,08,02,03,46,13.50
2009,08,02,03,47,13.40
2009,08,02,03,48,13.40
2009,08,02,03,49,13.40
2009,08,02,03,50,13.30
2009,08,02,03,51,13.30
2009,08,02,03,52,13.20
2009,08,02,03,53,13.20
2009,08,02,03,54,13.20
2009,08,02,03,55,13.20
2009,08,02,03,56,13.20
2009,08,02,03,57,13.20
2009,08,02,03,58,13.20
2009,08,02,03,59,13.10
2009,08,02,04,00,13.10
2009,08,02,04,01,13.10
2009,08,02,04,02,13.10
2009,08,02,04,03,13.10
2009,08,02,04,04,13.10
2009,08,02,04,05,13.10
2009,08,02,04,06,13.10
2009,08,02,04,07,13.10
2009,08,02,04,08,13.20
2009,08,02,04,09,13.20
2009,08,02,04,10,13.20
2009,08,02,04,11,13.20
2009,08,02,04,12,13.20
2009,08,02,04,13,13.30
2009,08,02,04,14,13.30
2009,08,02,04,15,13.30
2009,08,02,04,16,13.40
2009,08,02,04,17,13.50
2009,08,02,04,18,13.50
2009,08,02,04,19,13.60
2009,08,02,04,20,13.60
2009,08,02,04,21,13.60
2009,08,02,04,22,13.60
2009,08,02,04,23,13.60
2009,08,02,04,24,13.60
2009,08,02,04,25,13.60
2009,08,02,04,26,13.60
2009,08,02,04,27,13.60
2009,08,02,04,28,13.60
2009,08,02,04,29,13.60
2009,08,02,04,30,13.60
2009,08,02,04,31,13.70
2009,08,02,04,32,13.70
2009,08,02,04,33,13.70
2009,08,02,04,34,13.70
2009,08,02,04,35,13.80
2009,08,02,04,36,13.80
2009,08,02,04,37,13.90
2009,08,02,04,38,13.90
2009,08,02,04,39,13.90
2009,08,02,04,40,14.00
2009,08,02,04,41,14.00
2009,08,02,04,42,14.10
2009,08,02,04,43,14.10
2009,08,02,04,44,14.20
2009,08,02,04,45,14.20
2009,08,02,04,46,14.20
2009,08,02,04,47,14.30
2009,08,02,04,48,14.30
2009,08,02,04,49,14.30
2009,08,02,04,50,14.40
2009,08,02,04,51,14.40
2009,08,02,04,52,14.40
2009,08,02,04,53,14.50
2009,08,02,04,54,14.50
2009,08,02,04,55,14.60
2009,08,02,04,56,14.60
2009,08,02,04,57,14.60
2009,08,02,04,58,14.60
2009,08,02,04,59,14.60
2009,08,02,05,00,14.60
2009,08,02,05,01,14.70
2009,08,02,05,02,14.70
2009,08,02,05,03,14.70
2009,08,02,05,04,14.70
2009,08,02,05,05,14.70
2009,08,02,05,06,14.70
2009,08,02,05,07,14.70
2009,08,02,05,08,14.70
2009,08,02,05,09,14.70
2009,08,02,05,10,14.70
2009,08,02,05,11,14.70
2009,08,02,05,12,14.70
2009,08,02,05,13,14.70
2009,08,02,05,14,14.70
2009,08,02,05,15,14.70
2009,08,02,05,16,14.70
2009,08,02,05,17,14.70
2009,08,02,05,18,14.70
2009,08,02,05,19,14.70
2009,08,02,05,20,14.70
2009,08,02,05,21,14.70
2009,08,02,05,22,14.70
2009,08,02,05,23,14.70
2009,08,02,05,24,14.70
2009,08,02,05,25,14.70
2009,08,02,05,26,14.60
2009,08,02,05,27,14.50
2009,08,02,05,28,14.50
2009,08,02,05,29,14.40
2009,08,02,05,30,14.30
2009,08,02,05,31,14.20
2009,08,02,05,32,14.00
2009,08,02,05,33,13.90
2009,08,02,05,34,13.70
2009,08,02,05,35,13.60
2009,08,02,05,36,13.50
2009,08,02,05,37,13.40
2009,08,02,05,38,13.30
2009,08,02,05,39,13.30
2009,08,02,05,40,13.30
2009,08,02,05,41,13.20
2009,08,02,05,42,13.20
2009,08,02,05,43,13.20
2009,08,02,05,44,13.10
2009,08,02,05,45,13.10
2009,08,02,05,46,13.10
2009,08,02,05,47,13.10
2009,08,02,05,48,13.10
2009,08,02,05,49,13.10
2009,08,02,05,50,13.10
2009,08,02,05,51,13.10
2009,08,02,05,52,13.10
2009,08,02,05,53,13.10
2009,08,02,05,54,13.10
2009,08,02,05,55,13.00
2009,08,02,05,56,13.00
2009,08,02,05,57,13.10
2009,08,02,05,58,13.10
2009,08,02,05,59,13.20
2009,08,02,06,00,13.30
2009,08,02,06,01,13.30
2009,08,02,06,02,13.40
2009,08,02,06,03,13.40
2009,08,02,06,04,13.50
2009,08,02,06,05,13.50
2009,08,02,06,06,13.60
2009,08,02,06,07,13.60
2009,08,02,06,08,13.60
2009,08,02,06,09,13.60
2009,08,02,06,10,13.60
2009,08,02,06,11,13.60
2009,08,02,06,12,13.60
2009,08,02,06,13,13.60
2009,08,02,06,14,13.60
2009,08,02,06,15,13.60
2009,08,02,06,16,13.60
2009,08,02,06,17,13.70
2009,08,02,06,18,13.70
2009,08,02,06,19,13.70
2009,08,02,06,20,13.70
2009,08,02,06,21,13.70
2009,08,02,06,22,13.70
2009,08,02,06,23,13.70
2009,08,02,06,24,13.80
2009,08,02,06,25,13.80
2009,08,02,06,26,13.80
2009,08,02,06,27,13.80
2009,08,02,06,28,13.90
2009,08,02,06,29,13.90
2009,08,02,06,30,13.90
2009,08,02,06,31,13.90
2009,08,02,06,32,13.90
2009,08,02,06,33,13.90
2009,08,02,06,34,14.00
2009,08,02,06,35,14.00
2009,08,02,06,36,14.00
2009,08,02,06,37,14.10
2009,08,02,06,38,14.10
2009,08,02,06,39,14.10
2009,08,02,06,40,14.20
2009,08,02,06,41,14.20
2009,08,02,06,42,14.20
2009,08,02,06,43,14.20
2009,08,02,06,44,14.30
2009,08,02,06,45,14.30
2009,08,02,06,46,14.30
2009,08,02,06,47,14.40
2009,08,02,06,48,14.40
2009,08,02,06,49,14.50
2009,08,02,06,50,14.50
2009,08,02,06,51,14.60
2009,08,02,06,52,14.60
2009,08,02,06,53,14.60
2009,08,02,06,54,14.70
2009,08,02,06,55,14.70
2009,08,02,06,56,14.70
2009,08,02,06,57,14.70
2009,08,02,06,58,14.70
2009,08,02,06,59,14.70
2009,08,02,07,00,14.70
2009,08,02,07,01,14.70
2009,08,02,07,02,14.80
2009,08,02,07,03,14.80
2009,08,02,07,04,14.80
2009,08,02,07,05,14.80
2009,08,02,07,06,14.80
2009,08,02,07,07,14.90
2009,08,02,07,08,14.90
2009,08,02,07,09,14.90
2009,08,02,07,10,14.90
2009,08,02,07,11,15.00
2009,08,02,07,12,15.00
2009,08,02,07,13,15.00
2009,08,02,07,14,15.00
2009,08,02,07,15,15.00
2009,08,02,07,16,15.00
2009,08,02,07,17,15.00
2009,08,02,07,18,15.00
2009,08,02,07,19,15.10
2009,08,02,07,20,15.20
2009,08,02,07,21,15.30
2009,08,02,07,22,15.30
2009,08,02,07,23,15.40
2009,08,02,07,24,15.50
2009,08,02,07,25,15.60
2009,08,02,07,26,15.70
2009,08,02,07,27,15.70
2009,08,02,07,28,15.80
2009,08,02,07,29,15.90
2009,08,02,07,30,16.00
2009,08,02,07,31,16.00
2009,08,02,07,32,16.00
2009,08,02,07,33,16.00
2009,08,02,07,34,16.10
2009,08,02,07,35,16.10
2009,08,02,07,36,16.10
2009,08,02,07,37,16.20
2009,08,02,07,38,16.20
2009,08,02,07,39,16.30
2009,08,02,07,40,16.40
2009,08,02,07,41,16.50
2009,08,02,07,42,16.60
2009,08,02,07,43,16.60
2009,08,02,07,44,16.70
2009,08,02,07,45,16.70
2009,08,02,07,46,16.70
2009,08,02,07,47,16.70
2009,08,02,07,48,16.70
2009,08,02,07,49,16.70
2009,08,02,07,50,16.80
2009,08,02,07,51,16.80
2009,08,02,07,52,16.90
2009,08,02,07,53,16.90
2009,08,02,07,54,16.90
2009,08,02,07,55,16.90
2009,08,02,07,56,16.90
2009,08,02,07,57,16.80
2009,08,02,07,58,16.80
2009,08,02,07,59,16.70
2009,08,02,08,00,16.70
2009,08,02,08,01,16.60
2009,08,02,08,02,16.60
2009,08,02,08,03,16.60
2009,08,02,08,04,16.50
2009,08,02,08,05,16.50
2009,08,02,08,06,16.40
2009,08,02,08,07,16.40
2009,08,02,08,08,16.40
2009,08,02,08,09,16.40
2009,08,02,08,10,16.30
2009,08,02,08,11,16.30
2009,08,02,08,12,16.20
2009,08,02,08,13,16.10
2009,08,02,08,14,16.10
2009,08,02,08,15,16.10
2009,08,02,08,16,16.10
2009,08,02,08,17,16.10
2009,08,02,08,18,16.10
2009,08,02,08,19,16.20
2009,08,02,08,20,16.30
2009,08,02,08,21,16.40
2009,08,02,08,22,16.50
2009,08,02,08,23,16.60
2009,08,02,08,24,16.70
2009,08,02,08,25,16.90
2009,08,02,08,26,17.10
2009,08,02,08,27,17.20
2009,08,02,08,28,17.40
2009,08,02,08,29,17.50
2009,08,02,08,30,17.70
2009,08,02,08,31,17.90
2009,08,02,08,32,18.00
2009,08,02,08,33,18.10
2009,08,02,08,34,18.30
2009,08,02,08,35,18.40
2009,08,02,08,36,18.50
2009,08,02,08,37,18.60
2009,08,02,08,38,18.80
2009,08,02,08,39,18.80
2009,08,02,08,40,18.90
2009,08,02,08,41,18.90
2009,08,02,08,42,18.90
2009,08,02,08,43,18.90
2009,08,02,08,44,18.90
2009,08,02,08,45,18.90
2009,08,02,08,46,18.90
2009,08,02,08,47,18.90
2009,08,02,08,48,18.80
2009,08,02,08,49,18.70
2009,08,02,08,50,18.60
2009,08,02,08,51,18.40
2009,08,02,08,52,18.40
2009,08,02,08,53,18.30
2009,08,02,08,54,18.30
2009,08,02,08,55,18.20
2009,08,02,08,56,18.10
2009,08,02,08,57,17.90
2009,08,02,08,58,17.70
2009,08,02,08,59,17.60
2009,08,02,09,00,17.40
2009,08,02,09,01,17.30
2009,08,02,09,02,17.20
2009,08,02,09,03,17.10
2009,08,02,09,04,17.00
2009,08,02,09,05,16.90
2009,08,02,09,06,16.90
2009,08,02,09,07,16.80
2009,08,02,09,08,16.80
2009,08,02,09,09,16.80
2009,08,02,09,10,16.80
2009,08,02,09,11,16.70
2009,08,02,09,12,16.60
2009,08,02,09,13,16.60
2009,08,02,09,14,16.60
2009,08,02,09,15,16.70
2009,08,02,09,16,16.70
2009,08,02,09,17,16.80
2009,08,02,09,18,16.80
2009,08,02,09,19,16.80
2009,08,02,09,20,16.80
2009,08,02,09,21,16.80
2009,08,02,09,22,16.80
2009,08,02,09,23,16.90
2009,08,02,09,24,16.90
2009,08,02,09,25,17.00
2009,08,02,09,26,17.00
2009,08,02,09,27,17.00
2009,08,02,09,28,17.10
2009,08,02,09,29,17.10
2009,08,02,09,30,17.10
2009,08,02,09,31,17.10
2009,08,02,09,32,17.10
2009,08,02,09,33,17.10
2009,08,02,09,34,17.10
2009,08,02,09,35,17.20
2009,08,02,09,36,17.30
2009,08,02,09,37,17.30
2009,08,02,09,38,17.40
2009,08,02,09,39,17.50
2009,08,02,09,40,17.60
2009,08,02,09,41,17.70
2009,08,02,09,42,17.70
2009,08,02,09,43,17.80
2009,08,02,09,44,17.90
2009,08,02,09,45,18.00
2009,08,02,09,46,18.20
2009,08,02,09,47,18.30
2009,08,02,09,48,18.40
2009,08,02,09,49,18.40
2009,08,02,09,50,18.40
2009,08,02,09,51,18.30
2009,08,02,09,52,18.20
2009,08,02,09,53,18.20
2009,08,02,09,54,18.20
2009,08,02,09,55,18.30
2009,08,02,09,56,18.30
2009,08,02,09,57,18.30
2009,08,02,09,58,18.10
2009,08,02,09,59,18.00
2009,08,02,10,00,17.80
2009,08,02,10,01,17.70
2009,08,02,10,02,17.60
2009,08,02,10,03,17.50
2009,08,02,10,04,17.40
2009,08,02,10,05,17.30
2009,08,02,10,06,17.30
2009,08,02,10,07,17.30
2009,08,02,10,08,17.20
2009,08,02,10,09,17.20
2009,08,02,10,10,17.20
2009,08,02,10,11,17.10
2009,08,02,10,12,17.00
2009,08,02,10,13,17.00
2009,08,02,10,14,17.00
2009,08,02,10,15,17.00
2009,08,02,10,16,17.00
2009,08,02,10,17,16.90
2009,08,02,10,18,16.90
2009,08,02,10,19,16.90
2009,08,02,10,20,17.00
2009,08,02,10,21,17.00
2009,08,02,10,22,17.10
2009,08,02,10,23,17.20
2009,08,02,10,24,17.30
2009,08,02,10,25,17.50
2009,08,02,10,26,17.50
2009,08,02,10,27,17.60
2009,08,02,10,28,17.60
2009,08,02,10,29,17.60
2009,08,02,10,30,17.60
2009,08,02,10,31,17.70
2009,08,02,10,32,17.70
2009,08,02,10,33,17.70
2009,08,02,10,34,17.80
2009,08,02,10,35,17.80
2009,08,02,10,36,17.90
2009,08,02,10,37,18.00
2009,08,02,10,38,18.10
2009,08,02,10,39,18.10
2009,08,02,10,40,18.30
2009,08,02,10,41,18.40
2009,08,02,10,42,18.40
2009,08,02,10,43,18.50
2009,08,02,10,44,18.60
2009,08,02,10,45,18.80
2009,08,02,10,46,18.90
2009,08,02,10,47,19.10
2009,08,02,10,48,19.30
2009,08,02,10,49,19.40
2009,08,02,10,50,19.40
2009,08,02,10,51,19.40
2009,08,02,10,52,19.40
2009,08,02,10,53,19.40
2009,08,02,10,54,19.40
2009,08,02,10,55,19.40
2009,08,02,10,56,19.30
2009,08,02,10,57,19.30
2009,08,02,10,58,19.30
2009,08,02,10,59,19.30
2009,08,02,11,00,19.40
2009,08,02,11,01,19.50
2009,08,02,11,02,19.60
2009,08,02,11,03,19.50
2009,08,02,11,04,19.40
2009,08,02,11,05,19.30
2009,08,02,11,06,19.30
2009,08,02,11,07,19.20
2009,08,02,11,08,19.20
2009,08,02,11,09,19.40
2009,08,02,11,10,19.60
2009,08,02,11,11,19.70
2009,08,02,11,12,19.70
2009,08,02,11,13,19.70
2009,08,02,11,14,19.70
2009,08,02,11,15,19.90
2009,08,02,11,16,19.90
2009,08,02,11,17,20.00
2009,08,02,11,18,20.00
2009,08,02,11,19,20.00
2009,08,02,11,20,20.00
2009,08,02,11,21,20.00
2009,08,02,11,22,19.90
2009,08,02,11,23,19.90
2009,08,02,11,24,19.90
2009,08,02,11,25,20.00
2009,08,02,11,26,20.00
2009,08,02,11,27,20.00
2009,08,02,11,28,20.00
2009,08,02,11,29,20.10
2009,08,02,11,30,20.10
2009,08,02,11,31,20.20
2009,08,02,11,32,20.20
2009,08,02,11,33,20.20
2009,08,02,11,34,20.10
2009,08,02,11,35,20.10
2009,08,02,11,36,20.10
2009,08,02,11,37,20.10
2009,08,02,11,38,20.20
2009,08,02,11,39,20.30
2009,08,02,11,40,20.40
2009,08,02,11,41,20.40
2009,08,02,11,42,20.50
2009,08,02,11,43,20.50
2009,08,02,11,44,20.60
2009,08,02,11,45,20.70
2009,08,02,11,46,20.80
2009,08,02,11,47,20.90
2009,08,02,11,48,21.10
2009,08,02,11,49,21.30
2009,08,02,11,50,21.30
2009,08,02,11,51,21.20
2009,08,02,11,52,21.30
2009,08,02,11,53,21.40
2009,08,02,11,54,21.40
2009,08,02,11,55,21.40
2009,08,02,11,56,21.50
2009,08,02,11,57,21.50
2009,08,02,11,58,21.60
2009,08,02,11,59,21.70
2009,08,02,12,00,21.80
2009,08,02,12,01,21.90
2009,08,02,12,02,22.10
2009,08,02,12,03,22.30
2009,08,02,12,04,22.20
2009,08,02,12,05,22.20
2009,08,02,12,06,22.20
2009,08,02,12,07,22.20
2009,08,02,12,08,22.20
2009,08,02,12,09,22.40
2009,08,02,12,10,22.50
2009,08,02,12,11,22.60
2009,08,02,12,12,22.50
2009,08,02,12,13,22.50
2009,08,02,12,14,22.50
2009,08,02,12,15,22.50
2009,08,02,12,16,22.60
2009,08,02,12,17,22.50
2009,08,02,12,18,22.40
2009,08,02,12,19,22.30
2009,08,02,12,20,22.30
2009,08,02,12,21,22.30
2009,08,02,12,22,22.20
2009,08,02,12,23,22.10
2009,08,02,12,24,22.10
2009,08,02,12,25,22.00
2009,08,02,12,26,21.90
2009,08,02,12,27,22.00
2009,08,02,12,28,22.00
2009,08,02,12,29,21.90
2009,08,02,12,30,21.90
2009,08,02,12,31,21.90
2009,08,02,12,32,22.10
2009,08,02,12,33,22.20
2009,08,02,12,34,22.30
2009,08,02,12,35,22.40
2009,08,02,12,36,22.40
2009,08,02,12,37,22.40
2009,08,02,12,38,22.30
2009,08,02,12,39,22.20
2009,08,02,12,40,22.20
2009,08,02,12,41,22.40
2009,08,02,12,42,22.60
2009,08,02,12,43,22.90
2009,08,02,12,44,23.00
2009,08,02,12,45,23.00
2009,08,02,12,46,23.20
2009,08,02,12,47,23.20
2009,08,02,12,48,23.20
2009,08,02,12,49,23.30
2009,08,02,12,50,23.50
2009,08,02,12,51,23.70
2009,08,02,12,52,23.70
2009,08,02,12,53,23.80
2009,08,02,12,54,23.80
2009,08,02,12,55,23.70
2009,08,02,12,56,23.70
2009,08,02,12,57,23.50
2009,08,02,12,58,23.40
2009,08,02,12,59,23.20
2009,08,02,13,00,23.20
2009,08,02,13,01,23.20
2009,08,02,13,02,23.30
2009,08,02,13,03,23.20
2009,08,02,13,04,23.10
2009,08,02,13,05,23.10
2009,08,02,13,06,23.30
2009,08,02,13,07,23.40
2009,08,02,13,08,23.40
2009,08,02,13,09,23.40
2009,08,02,13,10,23.50
2009,08,02,13,11,23.60
2009,08,02,13,12,23.60
2009,08,02,13,13,23.60
2009,08,02,13,14,23.70
2009,08,02,13,15,23.80
2009,08,02,13,16,23.80
2009,08,02,13,17,23.80
2009,08,02,13,18,23.80
2009,08,02,13,19,23.90
2009,08,02,13,20,23.90
2009,08,02,13,21,23.80
2009,08,02,13,22,23.80
2009,08,02,13,23,23.90
2009,08,02,13,24,23.80
2009,08,02,13,25,23.90
2009,08,02,13,26,23.80
2009,08,02,13,27,23.70
2009,08,02,13,28,23.60
2009,08,02,13,29,23.60
2009,08,02,13,30,23.60
2009,08,02,13,31,23.60
2009,08,02,13,32,23.60
2009,08,02,13,33,23.70
2009,08,02,13,34,23.70
2009,08,02,13,35,23.80
2009,08,02,13,36,23.90
2009,08,02,13,37,24.00
2009,08,02,13,38,24.10
2009,08,02,13,39,24.20
2009,08,02,13,40,24.30
2009,08,02,13,41,24.30
2009,08,02,13,42,24.20
2009,08,02,13,43,24.40
2009,08,02,13,44,24.50
2009,08,02,13,45,24.70
2009,08,02,13,46,24.70
2009,08,02,13,47,24.70
2009,08,02,13,48,24.80
2009,08,02,13,49,24.70
2009,08,02,13,50,24.70
2009,08,02,13,51,24.60
2009,08,02,13,52,24.70
2009,08,02,13,53,24.70
2009,08,02,13,54,24.60
2009,08,02,13,55,24.50
2009,08,02,13,56,24.40
2009,08,02,13,57,24.30
2009,08,02,13,58,24.20
2009,08,02,13,59,24.30
2009,08,02,14,00,24.30
2009,08,02,14,01,24.30
2009,08,02,14,02,24.40
2009,08,02,14,03,24.40
2009,08,02,14,04,24.40
2009,08,02,14,05,24.40
2009,08,02,14,06,24.50
2009,08,02,14,07,24.40
2009,08,02,14,08,24.50
2009,08,02,14,09,24.60
2009,08,02,14,10,24.70
2009,08,02,14,11,24.80
2009,08,02,14,12,24.80
2009,08,02,14,13,24.70
2009,08,02,14,14,24.60
2009,08,02,14,15,24.60
2009,08,02,14,16,24.60
2009,08,02,14,17,24.50
2009,08,02,14,18,24.40
2009,08,02,14,19,24.30
2009,08,02,14,20,24.20
2009,08,02,14,21,24.20
2009,08,02,14,22,24.20
2009,08,02,14,23,24.20
2009,08,02,14,24,24.20
2009,08,02,14,25,24.20
2009,08,02,14,26,24.20
2009,08,02,14,27,24.20
2009,08,02,14,28,24.20
2009,08,02,14,29,24.10
2009,08,02,14,30,24.10
2009,08,02,14,31,24.10
2009,08,02,14,32,24.00
2009,08,02,14,33,23.90
2009,08,02,14,34,23.80
2009,08,02,14,35,23.70
2009,08,02,14,36,23.70
2009,08,02,14,37,23.70
2009,08,02,14,38,23.80
2009,08,02,14,39,23.80
2009,08,02,14,40,23.80
2009,08,02,14,41,23.90
2009,08,02,14,42,23.90
2009,08,02,14,43,24.00
2009,08,02,14,44,24.10
2009,08,02,14,45,24.20
2009,08,02,14,46,24.20
2009,08,02,14,47,24.20
2009,08,02,14,48,24.20
2009,08,02,14,49,24.20
2009,08,02,14,50,24.20
2009,08,02,14,51,24.20
2009,08,02,14,52,24.30
2009,08,02,14,53,24.30
2009,08,02,14,54,24.30
2009,08,02,14,55,24.40
2009,08,02,14,56,24.40
2009,08,02,14,57,24.40
2009,08,02,14,58,24.40
2009,08,02,14,59,24.30
2009,08,02,15,00,24.20
2009,08,02,15,01,24.20
2009,08,02,15,02,24.00
2009,08,02,15,03,24.00
2009,08,02,15,04,24.10
2009,08,02,15,05,24.10
2009,08,02,15,06,24.00
2009,08,02,15,07,23.90
2009,08,02,15,08,23.90
2009,08,02,15,09,23.90
2009,08,02,15,10,23.90
2009,08,02,15,11,23.90
2009,08,02,15,12,23.90
2009,08,02,15,13,23.90
2009,08,02,15,14,23.90
2009,08,02,15,15,24.10
2009,08,02,15,16,24.20
2009,08,02,15,17,24.40
2009,08,02,15,18,24.50
2009,08,02,15,19,24.60
2009,08,02,15,20,24.70
2009,08,02,15,21,24.90
2009,08,02,15,22,25.00
2009,08,02,15,23,25.10
2009,08,02,15,24,25.20
2009,08,02,15,25,25.30
2009,08,02,15,26,25.40
2009,08,02,15,27,25.50
2009,08,02,15,28,25.70
2009,08,02,15,29,25.70
2009,08,02,15,30,25.60
2009,08,02,15,31,25.30
2009,08,02,15,32,25.10
2009,08,02,15,33,24.90
2009,08,02,15,34,24.80
2009,08,02,15,35,24.60
2009,08,02,15,36,24.60
2009,08,02,15,37,24.60
2009,08,02,15,38,24.70
2009,08,02,15,39,24.70
2009,08,02,15,40,24.70
2009,08,02,15,41,24.60
2009,08,02,15,42,24.50
2009,08,02,15,43,24.40
2009,08,02,15,44,24.40
2009,08,02,15,45,24.40
2009,08,02,15,46,24.30
2009,08,02,15,47,24.30
2009,08,02,15,48,24.50
2009,08,02,15,49,24.50
2009,08,02,15,50,24.60
2009,08,02,15,51,24.70
2009,08,02,15,52,24.80
2009,08,02,15,53,24.90
2009,08,02,15,54,24.90
2009,08,02,15,55,24.90
2009,08,02,15,56,24.90
2009,08,02,15,57,25.00
2009,08,02,15,58,25.10
2009,08,02,15,59,25.00
2009,08,02,16,00,24.80
2009,08,02,16,01,24.70
2009,08,02,16,02,24.60
2009,08,02,16,03,24.50
2009,08,02,16,04,24.40
2009,08,02,16,05,24.30
2009,08,02,16,06,24.10
2009,08,02,16,07,24.00
2009,08,02,16,08,24.10
2009,08,02,16,09,24.10
2009,08,02,16,10,24.10
2009,08,02,16,11,24.00
2009,08,02,16,12,23.90
2009,08,02,16,13,23.80
2009,08,02,16,14,23.80
2009,08,02,16,15,23.90
2009,08,02,16,16,24.00
2009,08,02,16,17,24.20
2009,08,02,16,18,24.40
2009,08,02,16,19,24.50
2009,08,02,16,20,24.50
2009,08,02,16,21,24.60
2009,08,02,16,22,24.60
2009,08,02,16,23,24.60
2009,08,02,16,24,24.60
2009,08,02,16,25,24.70
2009,08,02,16,26,24.60
2009,08,02,16,27,24.70
2009,08,02,16,28,24.80
2009,08,02,16,29,24.90
2009,08,02,16,30,25.00
2009,08,02,16,31,25.00
2009,08,02,16,32,24.90
2009,08,02,16,33,24.60
2009,08,02,16,34,24.30
2009,08,02,16,35,24.10
2009,08,02,16,36,24.00
2009,08,02,16,37,23.80
2009,08,02,16,38,23.50
2009,08,02,16,39,23.30
2009,08,02,16,40,23.20
2009,08,02,16,41,23.10
2009,08,02,16,42,23.10
2009,08,02,16,43,23.10
2009,08,02,16,44,23.10
2009,08,02,16,45,23.10
2009,08,02,16,46,23.10
2009,08,02,16,47,23.10
2009,08,02,16,48,23.10
2009,08,02,16,49,23.10
2009,08,02,16,50,23.10
2009,08,02,16,51,23.20
2009,08,02,16,52,23.30
2009,08,02,16,53,23.30
2009,08,02,16,54,23.30
2009,08,02,16,55,23.20
2009,08,02,16,56,23.20
2009,08,02,16,57,23.20
2009,08,02,16,58,23.20
2009,08,02,16,59,23.20
2009,08,02,17,00,23.30
2009,08,02,17,01,23.30
2009,08,02,17,02,23.30
2009,08,02,17,03,23.30
2009,08,02,17,04,23.20
2009,08,02,17,05,23.20
2009,08,02,17,06,23.20
2009,08,02,17,07,23.20
2009,08,02,17,08,23.20
2009,08,02,17,09,23.10
2009,08,02,17,10,23.10
2009,08,02,17,11,23.10
2009,08,02,17,12,23.00
2009,08,02,17,13,22.90
2009,08,02,17,14,22.90
2009,08,02,17,15,22.80
2009,08,02,17,16,22.80
2009,08,02,17,17,22.80
2009,08,02,17,18,22.70
2009,08,02,17,19,22.60